[[{"header":{"parameterUnit":"m.s-1","parameterCategory":1,"la1":30.2992,"la2":30.254,"lo1":-89.0895,"lo2":-89.0443,"dy":0.0025,"dx":0.0025,"nx":19,"ny":19,"refTime":"2026-03-09T21:00:00:Z","depth":0,"parameterNumber":2,"parameterNumberName":"U-component_of_WINDS"},"data":[0,0,0,-1.0446,-1.0445,-1.0389,-1.0389,-1.0326,-1.0325,0,0,0,0,0,0,0,0,0,0,0,-1.0467,-1.0466,-1.0446,-1.0444,-1.0389,-1.0389,-1.0326,-1.0325,0,0,0,0,0,0,0,0,0,0,0,-1.0467,-1.0466,-1.0466,-1.0444,-1.0389,-1.0389,-1.0326,-1.0365,0,0,0,0,0,0,0,0,0,0,-1.0417,-1.0441,-1.0466,-1.0466,-1.0444,-1.0389,-1.0389,-1.0367,-1.0362,-1.0354,0,-1.0347,0,-1.0335,-1.0321,-1.0321,0,0,0,-1.0441,-1.0445,-1.0426,-1.0466,-1.0444,-1.0389,-1.0413,-1.0364,-1.0359,-1.0348,-1.0346,-1.0344,-1.0334,-1.0321,-1.0321,-1.0282,-1.0282,0,0,-1.0444,-1.0459,-1.0429,-1.0423,-1.0432,-1.0415,-1.0412,-1.0361,-1.036,-1.0346,-1.0342,-1.0333,-1.032,-1.032,-1.0282,-1.0282,0,0,0,-1.0455,-1.0461,-1.0443,-1.0426,-1.0415,-1.0414,-1.0409,-1.0362,-1.0355,-1.0341,-1.0332,-1.032,-1.0319,-1.0282,-1.0282,-1.0296,0,0,0,-1.0457,-1.0468,-1.0445,-1.0454,-1.0416,-1.0388,-1.0412,-1.0359,-1.0353,-1.0333,-1.032,-1.0319,-1.0282,-1.0282,-1.0295,-1.0299,0,0,0,-1.0469,-1.0469,-1.0463,-1.0455,-1.0431,-1.0389,-1.0378,-1.0357,-1.0347,-1.0321,-1.0319,-1.0282,-1.0282,-1.0295,-1.0299,-1.0293,0,0,0,-1.0486,-1.0476,-1.0463,-1.0449,-1.0432,-1.0397,-1.0379,-1.0352,-1.0331,-1.032,-1.0282,-1.0282,-1.0295,-1.0298,-1.0293,-1.0291,-1.0292,0,0,-1.0482,-1.0476,-1.0466,-1.0453,-1.0425,-1.0405,-1.0378,-1.0345,-1.0329,-1.0299,-1.0297,-1.0295,-1.0299,-1.0293,-1.0291,-1.0292,0,0,0,-1.047,-1.0463,-1.0452,-1.0433,-1.0407,-1.0385,-1.0355,-1.0342,-1.0316,-1.0316,-1.0292,-1.0293,-1.0289,-1.0288,-1.0288,-1.0284,-1.0282,-1.0282,-1.0282,-1.0486,-1.0465,-1.0448,-1.042,-1.0402,-1.037,-1.0353,-1.0331,-1.0316,-1.0311,-1.0302,-1.0303,-1.0302,-1.0302,-1.0298,-1.0299,-1.0299,-1.0299,-1.0299,-1.0478,-1.0464,-1.0444,-1.042,-1.0399,-1.0378,-1.0347,-1.0337,-1.0314,-1.0308,-1.0304,-1.0299,-1.0303,-1.0299,-1.03,-1.03,-1.03,-1.03,-1.03,-1.0485,-1.0476,-1.0461,-1.043,-1.0409,-1.0382,-1.0361,-1.0343,-1.0325,-1.032,-1.0308,-1.0308,-1.0305,-1.0316,-1.0316,-1.0316,-1.0316,-1.0316,-1.0316,-1.05,-1.0482,-1.0467,-1.0438,-1.0423,-1.0401,-1.0369,-1.0353,-1.0332,-1.032,-1.0319,-1.0305,-1.0308,-1.0309,-1.0316,-1.0316,-1.0316,-1.0316,-1.0316,-1.0498,-1.0496,-1.0472,-1.0457,-1.0422,-1.0402,-1.0378,-1.0348,-1.0333,-1.0323,-1.0309,-1.0315,-1.0308,-1.0307,-1.0308,-1.0314,-1.0314,-1.0314,-1.0314,-1.0505,-1.0499,-1.0471,-1.0448,-1.0423,-1.0399,-1.0373,-1.0347,-1.0321,-1.031,-1.0306,-1.0306,-1.0306,-1.0299,-1.0298,-1.0298,-1.0303,-1.0302,-1.0302,-1.0503,-1.0494,-1.0475,-1.0449,-1.042,-1.0396,-1.037,-1.0345,-1.0314,-1.0302,-1.0301,-1.0302,-1.03,-1.0301,-1.0289,-1.0288,-1.0289,0,0]},{"header":{"parameterUnit":"m.s-1","parameterCategory":1,"la1":30.2992,"la2":30.254,"lo1":-89.0895,"lo2":-89.0443,"dy":0.0025,"dx":0.0025,"nx":19,"ny":19,"refTime":"2026-03-09T21:00:00:Z","depth":0,"parameterNumber":3,"parameterNumberName":"V-component_of_WINDS"},"data":[0,0,0,3.8698,3.8699,3.8748,3.8748,3.8805,3.8806,0,0,0,0,0,0,0,0,0,0,0,3.8679,3.868,3.8698,3.8699,3.8748,3.8748,3.8805,3.8806,0,0,0,0,0,0,0,0,0,0,0,3.8679,3.868,3.868,3.8699,3.8748,3.8748,3.8805,3.877,0,0,0,0,0,0,0,0,0,0,3.8724,3.8702,3.868,3.868,3.87,3.8748,3.8748,3.8769,3.8773,3.8781,0,3.8786,0,3.8797,3.8809,3.8809,0,0,0,3.8702,3.8699,3.8716,3.868,3.87,3.8748,3.8727,3.8771,3.8775,3.8786,3.8787,3.879,3.8798,3.881,3.881,3.8849,3.8849,0,0,3.8699,3.8686,3.8713,3.8719,3.871,3.8725,3.8728,3.8774,3.8774,3.8788,3.8791,3.8799,3.881,3.881,3.8849,3.8849,0,0,0,3.869,3.8684,3.87,3.8716,3.8725,3.8726,3.873,3.8772,3.8779,3.8792,3.88,3.881,3.8811,3.8849,3.8849,3.8839,0,0,0,3.8688,3.8678,3.8699,3.8691,3.8725,3.8749,3.8728,3.8776,3.8781,3.8799,3.881,3.8811,3.8849,3.8849,3.8839,3.8836,0,0,0,3.8678,3.8677,3.8683,3.869,3.8711,3.8749,3.8758,3.8777,3.8786,3.881,3.8812,3.8849,3.8849,3.8839,3.8837,3.8844,0,0,0,3.8662,3.8671,3.8682,3.8696,3.871,3.8742,3.8758,3.8782,3.8801,3.8811,3.8849,3.8849,3.8839,3.8837,3.8844,3.8849,3.8849,0,0,3.8666,3.8671,3.868,3.8692,3.8719,3.8736,3.8762,3.8791,3.8805,3.8834,3.8835,3.8839,3.8837,3.8844,3.8855,3.8855,0,0,0,3.8677,3.8684,3.8694,3.8712,3.8736,3.8757,3.8784,3.8796,3.8821,3.8817,3.8844,3.8843,3.8848,3.8851,3.8851,3.8857,3.8849,3.8849,3.8849,3.8662,3.8682,3.8699,3.8726,3.8743,3.8773,3.879,3.8811,3.8823,3.883,3.8838,3.8842,3.8845,3.8845,3.8852,3.8842,3.8842,3.8841,3.8841,3.867,3.8684,3.8704,3.8728,3.8749,3.877,3.8801,3.881,3.8833,3.8836,3.8842,3.8845,3.8845,3.8852,3.8841,3.8841,3.8841,3.8841,3.8841,3.8663,3.8673,3.8688,3.872,3.8741,3.8768,3.8791,3.8809,3.8826,3.8831,3.8844,3.8844,3.8848,3.8836,3.8836,3.8836,3.8836,3.8836,3.8836,3.865,3.8667,3.8684,3.8713,3.873,3.8753,3.8786,3.8803,3.8826,3.8838,3.8838,3.8852,3.8841,3.8838,3.8837,3.8837,3.8836,3.8836,3.8836,3.8651,3.8655,3.8681,3.8697,3.8735,3.8758,3.8782,3.8815,3.8831,3.8843,3.8856,3.8845,3.8851,3.8851,3.885,3.8851,3.8851,3.8851,3.8851,3.8646,3.8652,3.8685,3.871,3.8738,3.8763,3.8795,3.8822,3.8851,3.8863,3.8866,3.8865,3.8864,3.8871,3.887,3.8869,3.8875,3.8875,3.8875,3.8649,3.8659,3.8681,3.871,3.8743,3.877,3.8801,3.8831,3.8864,3.8877,3.8873,3.8872,3.8871,3.8869,3.888,3.8879,3.8877,0,0]}]]